Location: LDNL
(36.4545°S, 141.6685°E)
Time: 12:28:29
(UTC+10:00)

Explorer 7 - Pass Details

Date: 16 August 2022
Orbit: 482 x 668 km, 50.3° (Epoch: 26 September)

Event Time Altitude Azimuth Distance (km) Brightness Sun altitude
Rises 19:28:19 0° 251° (WSW) 3,019 11.8 -18.2°
Reaches altitude 10° 19:31:32 10° 230° (SW) 2,092 10.4 -18.8°
Maximum altitude 19:34:36 17° 191° (S) 1,676 9.3 -19.4°
Enters shadow 19:36:42 13° 161° (SSE) 1,859 9.3 -19.9°
Drops below altitude 10° 19:37:37 10° 151° (SSE) 2,043 - -20.0°
Sets 19:40:42 0° 129° (SE) 2,915 - -20.7°
